Torna al catalogo

STARLINK-3866

AttivoComunicazioniVLEO
NORAD 52500·PAYLOAD·🇺🇸 United States

Lanciato May 6, 2022 da Cape Canaveral Space Force Station

Loading…

Prossimi Passaggi (prossime 24 ore)

TLE

AggiornatoSource: CelesTrak SupGP

Epoca: Sep 15, 2026, 02:09 UTC

1 52500C 22049BB  26258.09006944 -.00011389  00000+0 -59426-3 0  2584
2 52500  53.1581 266.6435 0003207  51.9887 348.2353 15.15434906    16

Traccia STARLINK-3866 in tempo reale con AllMySat

Download on the App Store